Temperature
20 20 20 20 18 17 18 19 19 19 19 19 19 19 18 18 18 18 17 18 18 18 17 17 17 17 17 17 17 17 17 17 17 17 17 17 17 17 17 17 17 17 17 17 17 17 17 17 17
20 20 20 20 17 18 19 19 19 20 20 19 19 19 18 17 17 18 17 17 17 17 17 17 17 17 17 17 17 17 17 17 17 17 17 17 17 17 17 17 17 17 17 17 17 17 17 17 17
21 20 20 17 17 18 19 19 19 20 20 20 19 18 18 18 18 18 18 17 17 17 17 17 17 17 17 17 17 17 17 17 17 17 17 17 17 17 17 17 17 17 17 17 17 17 17 17 17
21 21 20 17 19 19 19 19 19 20 20 19 19 18 18 18 18 18 18 17 17 17 17 17 17 17 17 17 17 17 17 17 16 17 17 17 17 16 16 16 16 16 16 16 16 16 17 16 17
21 20 17 17 19 19 19 19 20 19 19 19 18 17 17 18 18 18 18 17 17 17 17 17 17 17 17 17 17 16 16 16 16 16 16 16 16 16 16 16 16 16 16 16 16 16 16 16 16
21 18 17 18 19 19 19 20 20 19 19 19 18 17 17 18 18 18 17 17 17 17 17 17 17 17 17 17 16 16 16 16 16 16 16 16 16 16 16 16 16 16 16 16 16 16 16 16 16
20 17 18 18 18 19 20 20 20 19 19 19 19 17 17 18 18 18 17 17 17 17 17 17 17 17 16 16 16 16 16 16 16 16 16 16 16 16 16 16 16 16 16 16 16 16 16 16 16
21 17 18 18 19 19 20 20 20 20 19 19 19 18 18 18 18 17 17 17 17 17 17 17 17 16 16 16 16 16 16 16 16 16 16 16 16 15 15 15 15 15 15 15 16 16 16 16 16
21 17 17 18 19 19 20 20 20 20 19 19 19 19 19 18 18 17 17 17 17 17 17 17 17 16 16 16 16 16 16 16 16 16 16 16 15 15 15 15 15 15 15 15 15 15 15 16 16
20 17 19 19 19 19 20 20 19 19 18 18 18 19 19 18 18 17 17 17 17 17 17 17 17 16 16 16 16 16 16 16 16 16 16 16 15 15 15 15 15 15 15 15 15 15 15 15 15
20 18 19 20 20 20 20 19 19 19 18 18 18 19 18 18 18 18 18 18 17 17 17 17 17 16 16 16 16 16 16 16 16 16 16 15 15 15 15 15 15 15 15 15 15 15 15 15 15
19 19 20 20 21 20 20 19 18 18 19 19 19 19 18 18 18 18 18 17 17 17 17 17 17 16 16 16 16 16 16 16 16 16 15 15 15 15 15 15 15 15 15 15 15 15 15 15 15
20 20 20 20 20 20 19 19 18 18 19 19 19 19 18 18 18 18 17 17 17 17 17 17 17 17 16 16 16 16 16 16 15 15 15 15 15 15 15 15 15 15 15 15 15 15 15 15 15
20 20 20 20 20 20 19 18 18 18 18 19 18 18 18 18 18 18 17 17 17 17 17 17 17 16 16 16 16 16 16 16 15 15 15 15 15 15 15 15 15 15 15 15 15 15 15 15 15
20 19 19 19 19 19 19 18 17 18 18 18 18 18 18 18 17 17 17 17 17 17 17 17 17 16 16 16 16 16 16 15 15 15 15 15 15 15 15 15 15 15 15 15 15 15 15 15 15
19 18 18 18 19 19 19 18 17 18 18 17 17 17 17 17 17 17 17 17 17 17 17 17 16 16 16 16 16 16 16 15 15 15 15 15 15 15 15 15 15 14 14 14 14 14 14 14 14
18 18 18 18 18 18 18 17 17 17 17 17 17 17 17 17 17 17 17 17 17 17 17 16 16 16 16 16 16 16 16 15 15 15 15 15 15 15 15 15 14 14 14 14 14 14 14 14 14
18 18 18 18 18 18 17 16 16 17 17 16 16 17 17 17 17 17 17 17 17 17 17 17 16 16 16 16 16 16 15 15 15 15 15 15 15 15 14 14 14 14 14 14 14 14 14 14 14
18 18 18 18 18 17 16 16 16 16 16 16 16 16 16 17 17 17 17 17 17 17 17 16 16 16 16 16 16 16 15 15 15 15 15 15 15 15 14 14 14 14 14 14 14 14 14 14 14
18 18 17 18 18 17 16 16 16 16 15 16 16 16 16 17 17 17 17 17 17 17 17 16 16 16 16 16 15 15 15 15 15 15 15 15 14 14 14 14 14 14 14 14 14 14 14 14 14
18 18 18 18 17 17 17 16 16 16 16 16 16 16 16 16 17 17 17 17 17 16 16 16 16 16 16 15 15 15 15 15 15 15 15 14 14 14 14 14 14 14 14 14 14 14 14 14 14
18 18 18 18 17 16 17 15 16 15 15 15 15 15 16 16 16 16 17 17 17 16 16 16 16 16 16 15 15 15 15 15 15 15 14 14 14 14 14 14 14 14 14 14 14 14 14 14 14
18 18 18 17 16 15 15 15 15 15 15 15 14 15 15 16 16 16 16 17 16 16 16 16 16 16 16 15 15 15 15 15 14 14 14 14 14 14 14 14 14 14 14 14 14 14 14 14 13
18 17 16 14 14 15 15 15 15 14 15 15 14 15 15 15 16 16 16 16 16 16 16 16 16 15 15 15 15 15 15 15 14 14 14 14 14 14 14 14 14 14 14 14 14 14 13 13 13
17 16 15 15 14 14 15 15 14 15 15 14 14 15 15 15 16 16 16 16 16 16 16 16 15 15 15 15 15 15 15 14 14 14 14 14 14 14 14 14 14 14 14 14 13 13 13 13 13
17 16 15 15 15 14 15 14 14 15 15 15 15 15 15 15 15 15 16 16 16 16 15 15 15 15 15 15 15 15 14 14 14 14 14 14 14 14 14 14 14 13 13 13 13 13 13 13 13
16 15 15 14 14 14 14 14 15 15 14 14 14 15 15 15 15 15 15 15 15 15 15 15 15 15 15 15 15 14 14 14 14 14 14 14 14 14 14 13 13 13 13 13 13 13 13 13 13
16 14 13 14 14 14 15 14 14 15 14 14 14 14 15 15 15 15 15 15 15 15 15 15 15 15 15 15 15 14 14 14 14 14 14 14 14 14 13 13 13 13 13 13 13 13 13 13 13
15 15 13 12 13 14 14 14 15 14 14 14 14 15 15 15 15 15 15 15 15 15 15 15 15 15 15 15 14 14 14 14 14 14 14 14 14 13 13 13 13 13 13 13 13 13 13 13 13
16 15 13 14 13 12 13 13 15 14 14 14 14 14 15 15 15 15 15 15 15 15 15 15 15 15 14 14 14 14 14 14 14 14 14 14 13 13 13 13 13 13 13 13 13 13 12 12 12
Wind_Speed
1 4 3 4 5 5 2 2 1 1 2 2 3 6 7 4 2 2 1 1 2 2 1 3 4 5 5 5 5 5 6 7 8 9 9 9 9 9 10 10 9 9 9 9 9 10 10 11 11
2 2 4 4 5 3 2 2 0 1 4 4 4 5 5 4 3 3 1 0 3 3 3 3 4 5 5 5 6 7 8 8 8 8 8 9 9 9 9 10 10 10 10 10 10 10 10 10 10
2 3 4 4 4 3 2 1 1 3 4 2 3 4 4 3 2 3 2 3 3 3 3 3 5 6 6 7 8 8 9 8 8 8 8 9 9 10 10 10 10 11 11 11 11 11 11 11 11
3 4 4 5 3 1 2 2 2 4 3 4 3 4 3 2 3 3 4 5 4 3 3 3 6 6 7 7 8 9 8 8 8 8 8 9 9 9 10 10 10 11 11 11 12 12 12 12 12
4 4 5 3 2 2 1 1 3 3 2 3 3 4 2 3 4 6 6 5 5 3 3 3 6 6 7 8 8 8 8 9 9 10 10 10 10 10 9 10 10 11 11 11 12 12 12 13 12
4 4 4 1 1 2 1 1 3 3 3 2 3 3 1 1 5 5 5 4 4 3 3 3 5 6 6 7 7 7 8 8 9 10 11 10 10 10 10 10 11 11 12 12 12 12 13 13 13
4 4 3 2 0 1 0 1 4 5 3 2 4 4 1 1 3 5 5 4 3 3 3 3 4 4 5 6 7 7 7 8 9 10 10 9 9 9 10 10 10 10 11 12 12 12 13 13 13
5 5 3 1 1 1 1 1 2 4 3 3 4 5 4 4 5 5 5 4 4 3 2 3 3 4 4 4 5 6 7 8 8 9 9 9 9 9 9 9 10 10 11 11 12 12 13 13 13
4 4 1 3 4 2 1 2 2 2 5 3 1 2 3 8 8 7 4 3 2 2 1 1 2 2 3 3 4 5 6 7 7 7 8 8 8 8 7 9 9 10 10 11 12 12 13 13 13
4 3 4 4 4 3 2 3 2 3 4 2 3 3 6 9 9 8 6 5 4 3 2 1 1 1 2 2 4 4 4 5 6 6 6 6 7 7 7 9 9 10 10 11 12 13 13 12 10
4 4 3 1 2 3 3 3 3 5 1 3 4 5 7 8 7 6 6 5 5 3 3 2 2 2 2 1 3 3 4 4 5 5 5 5 6 7 7 7 8 9 9 9 10 11 10 10 9
3 2 2 1 3 4 3 3 3 2 2 2 5 8 8 8 6 6 6 4 3 3 3 2 2 2 2 2 2 2 3 3 3 3 4 4 4 4 4 5 6 7 7 7 8 7 9 9 9
2 1 1 3 4 5 5 4 3 1 2 4 7 8 7 6 5 4 3 3 3 3 3 2 2 2 2 2 1 2 2 2 3 3 3 4 4 3 3 3 5 5 6 6 6 6 6 6 7
2 2 2 2 3 3 5 3 3 1 2 6 6 6 5 5 4 3 2 3 3 3 3 3 3 3 3 2 2 2 2 3 3 3 3 4 4 4 3 3 3 4 5 6 6 5 5 4 5
3 4 4 3 2 1 5 4 1 1 4 5 4 4 3 3 3 3 3 3 3 3 2 2 3 3 3 2 2 2 2 3 3 2 3 4 5 5 4 3 2 3 5 6 6 6 5 4 4
4 4 2 4 1 1 4 1 2 1 5 3 2 2 2 2 3 3 2 2 2 2 2 2 2 3 2 2 2 2 2 3 2 3 3 4 5 5 4 3 2 3 5 5 4 3 4 4 4
4 1 1 3 2 2 3 2 2 1 4 3 2 2 2 2 2 2 2 2 2 3 2 2 2 2 2 2 2 2 3 2 2 3 3 4 5 5 5 3 3 5 4 3 3 3 3 3 3
2 1 0 2 2 3 3 1 2 1 3 2 2 2 2 3 4 2 1 1 2 2 2 2 2 2 2 2 2 2 2 1 2 3 3 5 5 5 5 4 4 4 4 3 3 4 3 3 2
2 2 1 2 1 2 2 2 3 1 1 2 2 2 3 4 3 1 1 1 2 2 2 2 2 2 2 1 1 1 1 0 1 1 3 4 5 5 5 4 3 3 3 3 3 3 4 2 2
2 1 1 2 1 2 1 2 2 1 2 3 3 3 3 2 1 0 1 2 2 2 2 2 2 2 2 2 1 2 2 1 0 1 2 3 3 4 4 4 3 3 3 3 3 3 2 1 1
1 4 3 2 2 3 2 4 3 1 1 1 1 2 3 3 3 2 1 1 1 2 2 2 1 1 1 2 2 2 3 2 1 1 1 1 2 3 4 5 4 3 3 3 2 3 3 2 1
3 4 4 3 2 1 1 2 4 2 2 2 2 2 2 3 2 2 1 1 2 2 2 2 2 1 1 2 3 3 3 2 2 1 1 1 2 2 3 4 4 4 3 3 3 2 2 3 2
3 2 4 3 3 1 1 2 6 2 3 4 3 2 2 2 2 2 2 3 3 2 2 2 2 1 1 2 3 4 3 2 1 1 2 1 1 1 2 3 3 3 3 3 2 2 2 2 3
4 5 5 5 4 1 2 3 4 3 4 3 2 2 2 1 1 1 0 0 1 1 1 2 2 1 1 2 2 4 4 4 3 2 2 1 0 0 1 2 2 3 2 2 2 2 3 2 2
5 5 3 4 3 3 2 2 5 4 3 3 3 3 2 2 2 1 1 1 0 1 1 2 3 1 1 2 2 3 4 4 4 3 3 3 2 1 2 2 2 2 2 3 2 2 2 2 2
2 6 5 3 3 4 2 3 4 3 2 0 1 2 2 2 2 2 1 1 1 1 1 2 2 2 1 2 2 2 2 3 3 3 3 3 3 3 3 3 2 2 2 2 2 2 2 2 2
4 3 5 5 2 1 4 4 4 1 2 2 2 2 2 3 2 2 1 1 1 1 1 2 3 2 2 2 2 2 2 3 3 3 2 2 2 2 3 3 3 2 2 2 2 2 2 2 2
4 7 5 4 3 2 4 3 4 4 4 2 1 2 3 3 3 2 2 1 1 1 1 1 1 2 2 2 2 1 1 2 3 2 3 3 3 2 2 3 3 3 2 2 3 2 2 2 1
3 4 4 4 4 4 2 5 4 5 4 4 4 3 4 4 4 3 3 2 1 0 0 0 0 0 0 1 1 0 0 0 1 2 3 3 2 3 3 3 3 3 2 2 3 3 3 3 2
3 4 5 4 2 3 3 6 4 2 2 2 2 2 2 3 3 3 3 2 2 1 1 0 0 1 1 1 1 1 0 0 0 1 2 2 3 3 3 3 3 3 3 3 4 4 3 3 3
Wind_Direction
41 84 79 59 56 52 36 311 278 44 53 41 63 86 99 95 105 143 262 117 126 136 155 139 108 100 94 87 81 92 104 97 93 91 88 86 83 81 81 79 80 81 84 84 81 80 79 76 76
101 91 60 62 81 77 318 294 20 134 141 130 70 75 79 73 71 102 102 109 119 128 117 122 111 102 92 83 82 96 104 99 94 90 90 90 87 84 84 81 78 78 79 81 79 80 79 77 77
109 63 77 71 92 148 203 262 161 67 101 92 74 61 82 98 116 145 181 136 105 102 100 119 110 100 92 83 83 96 98 96 90 87 89 93 91 87 84 82 80 76 73 73 75 76 75 76 76
88 49 55 70 79 224 209 193 146 111 67 49 85 72 64 58 145 152 134 123 112 97 90 108 107 99 94 88 84 88 89 87 86 85 92 97 94 88 82 82 79 77 75 73 74 74 71 71 76
62 73 62 53 3 311 283 185 131 101 75 41 77 90 52 10 102 120 128 127 123 113 94 104 110 104 94 88 85 84 83 81 82 88 95 96 93 88 83 81 78 76 75 77 78 74 72 72 73
57 67 82 89 330 327 327 110 113 98 105 103 103 104 64 55 115 133 130 124 124 124 103 98 105 101 98 95 91 88 84 81 82 86 89 89 88 84 80 79 77 75 75 78 79 75 74 74 73
101 92 120 151 191 334 6 98 127 129 127 149 133 114 129 149 147 134 118 107 97 96 95 84 85 89 94 99 97 93 87 82 82 85 87 87 85 82 80 78 79 79 79 81 82 79 77 77 77
120 101 91 147 179 280 317 72 104 124 135 121 121 140 188 191 141 113 97 90 86 77 82 85 80 83 85 91 97 95 91 87 84 84 83 78 74 76 79 77 80 80 81 82 80 78 75 75 78
93 81 156 210 188 215 90 79 46 67 100 79 79 160 170 136 128 119 104 96 107 121 82 92 88 79 86 92 92 87 83 82 79 79 81 69 60 60 65 73 77 78 79 80 80 79 77 74 75
94 136 216 214 184 165 105 93 112 83 75 61 56 64 111 129 140 145 152 164 174 182 189 163 132 105 87 94 81 77 74 73 71 73 73 69 64 58 62 67 71 75 77 78 80 79 74 68 64
129 175 218 230 169 140 110 88 78 114 128 199 183 157 139 143 150 162 173 179 188 191 193 179 166 136 112 92 92 85 84 79 76 80 80 80 72 63 62 60 60 65 70 72 73 71 68 66 63
127 183 168 176 125 110 115 113 90 100 234 201 162 149 147 155 169 182 189 192 180 178 197 179 159 144 145 128 105 100 97 94 96 99 95 93 83 70 66 65 63 68 74 77 75 76 72 68 63
134 151 84 102 99 102 93 87 118 19 11 95 108 121 145 159 169 181 180 175 170 185 193 183 172 163 151 125 126 119 122 124 130 121 115 116 109 94 82 74 73 73 80 85 83 78 73 67 60
151 104 76 72 90 100 101 74 81 306 87 102 119 140 160 173 173 169 171 178 186 196 191 175 168 165 149 142 145 141 154 150 139 140 143 137 129 118 104 87 79 77 85 92 91 86 80 69 66
84 75 39 30 62 99 102 38 5 192 117 121 144 156 164 186 178 191 196 190 198 203 189 176 176 156 153 158 169 156 152 142 140 154 155 142 137 128 118 103 90 89 98 97 89 79 75 71 63
56 56 12 328 31 74 112 245 299 123 129 152 178 172 179 208 211 209 201 200 198 187 172 189 177 155 162 158 159 137 138 137 148 156 149 141 145 141 125 116 110 110 106 102 95 80 75 63 59
35 55 304 323 359 104 134 222 290 120 140 174 199 198 195 238 270 236 205 199 187 187 175 171 149 143 158 138 121 117 115 124 137 138 137 143 147 144 130 124 119 117 104 97 102 81 91 84 66
230 186 273 275 316 101 127 235 300 183 154 188 203 201 196 220 242 232 191 178 166 173 174 163 148 140 136 112 94 84 79 78 105 118 134 143 143 140 130 122 119 116 105 93 92 93 77 85 84
147 137 241 264 242 114 156 249 271 245 175 215 227 223 226 235 251 246 146 124 117 131 147 157 163 168 148 133 132 123 128 33 45 89 119 136 145 144 134 126 121 120 119 124 121 107 87 66 69
135 145 274 320 36 126 141 308 290 210 220 215 211 220 229 242 280 271 125 109 138 154 153 154 164 165 170 172 155 130 123 107 117 76 90 115 139 146 146 135 134 130 121 117 123 118 107 80 71
195 191 206 208 23 50 60 334 318 309 292 281 236 218 220 215 212 213 181 160 154 176 182 174 164 156 161 141 114 91 75 58 45 48 55 73 129 140 142 144 139 136 139 148 156 150 138 143 74
231 223 187 154 116 299 92 291 292 286 305 289 276 253 241 238 206 196 191 190 196 212 188 160 161 150 151 145 147 148 157 170 201 180 152 97 112 128 142 144 143 145 146 154 176 168 153 143 151
206 111 125 130 139 46 9 179 286 325 293 281 274 261 251 235 194 195 208 211 205 199 176 168 154 154 150 150 162 161 161 175 161 119 108 100 70 113 141 149 146 149 154 161 160 151 155 157 162
118 76 60 54 77 355 261 182 279 266 249 279 267 251 235 199 168 161 136 125 169 158 144 141 141 155 158 149 155 164 166 162 152 146 150 157 132 1 142 159 159 161 165 167 166 160 157 162 161
76 83 33 5 12 263 284 185 251 266 250 224 228 231 210 184 169 154 115 83 97 146 150 139 141 156 169 153 167 185 178 167 171 175 181 181 193 224 225 185 169 174 184 174 164 155 164 173 175
150 135 154 202 233 282 322 235 256 287 310 238 179 174 167 177 191 196 192 191 212 180 175 162 161 173 168 162 186 184 178 177 185 187 191 192 204 216 204 175 176 183 171 163 161 159 181 175 191
133 153 160 138 159 280 288 288 303 324 8 47 85 131 188 199 209 219 200 193 216 222 212 190 179 180 189 195 196 191 185 187 192 198 200 206 218 213 181 169 174 184 176 167 152 169 189 177 200
123 139 102 125 157 253 293 287 270 270 267 270 229 208 217 200 196 217 208 198 216 220 221 134 156 194 215 207 208 194 196 200 198 194 210 217 222 209 179 176 175 180 180 179 166 181 192 171 200
78 93 106 119 146 161 256 275 237 228 229 225 235 233 216 205 204 201 199 192 203 223 147 140 173 165 235 225 222 218 245 210 200 211 231 226 224 209 200 182 179 186 193 191 180 193 174 170 179
154 153 142 149 212 173 183 266 291 248 235 208 236 260 244 213 206 197 186 177 175 200 210 214 222 224 236 211 161 204 244 65 230 236 240 226 217 207 201 186 183 193 200 194 188 191 180 176 186
Height
1499 1498 1499 1500 1504 1515 1517 1513 1509 1507 1507 1508 1507 1507 1509 1512 1516 1520 1517 1515 1515 1515 1515 1515 1515 1514 1513 1511 1508 1507 1509 1511 1512 1513 1513 1513 1514 1514 1514 1514 1514 1514 1513 1513 1513 1513 1514 1514 1514
1499 1499 1501 1501 1512 1524 1520 1511 1509 1507 1507 1508 1508 1509 1510 1512 1514 1515 1515 1515 1516 1516 1516 1516 1516 1515 1513 1511 1507 1506 1508 1511 1512 1513 1513 1514 1514 1515 1515 1515 1515 1515 1515 1514 1514 1515 1515 1515 1515
1499 1500 1502 1505 1515 1522 1517 1509 1508 1507 1508 1508 1510 1511 1512 1514 1515 1515 1516 1516 1516 1517 1517 1517 1517 1516 1515 1513 1509 1508 1511 1512 1512 1512 1513 1514 1515 1516 1516 1517 1516 1516 1516 1516 1516 1516 1517 1517 1517
1500 1502 1503 1511 1516 1513 1511 1508 1508 1508 1509 1509 1510 1512 1514 1516 1516 1516 1517 1517 1517 1518 1518 1518 1518 1517 1517 1516 1514 1513 1514 1513 1512 1511 1511 1514 1516 1517 1518 1518 1518 1518 1518 1518 1518 1518 1518 1518 1518
1501 1502 1510 1517 1515 1511 1508 1507 1508 1509 1510 1511 1512 1513 1515 1516 1517 1517 1518 1518 1518 1519 1519 1519 1519 1519 1519 1518 1518 1517 1516 1516 1514 1511 1512 1515 1517 1518 1519 1519 1520 1519 1519 1519 1519 1519 1519 1520 1520
1502 1504 1518 1522 1516 1511 1508 1508 1508 1510 1511 1512 1513 1514 1516 1517 1517 1518 1519 1519 1520 1520 1520 1520 1520 1521 1521 1520 1520 1520 1519 1519 1517 1515 1515 1518 1519 1520 1521 1521 1521 1521 1521 1521 1521 1521 1521 1522 1522
1504 1509 1517 1518 1517 1513 1509 1508 1509 1510 1511 1513 1513 1515 1516 1517 1518 1519 1520 1520 1521 1521 1521 1522 1522 1522 1522 1522 1522 1522 1521 1521 1520 1520 1520 1521 1521 1522 1522 1523 1523 1523 1523 1523 1523 1523 1523 1524 1524
1503 1509 1516 1518 1517 1514 1510 1509 1509 1510 1512 1513 1514 1515 1516 1517 1518 1519 1520 1521 1522 1522 1523 1523 1523 1524 1524 1524 1524 1524 1524 1523 1523 1522 1522 1523 1523 1524 1524 1524 1525 1525 1525 1525 1525 1525 1525 1525 1526
1504 1513 1519 1515 1515 1512 1509 1509 1511 1511 1512 1513 1514 1515 1516 1517 1518 1520 1521 1522 1523 1523 1524 1524 1525 1525 1525 1525 1525 1525 1525 1525 1524 1524 1525 1525 1525 1526 1526 1526 1527 1527 1527 1527 1527 1527 1527 1527 1527
1504 1515 1512 1508 1508 1509 1509 1510 1511 1512 1513 1514 1514 1515 1516 1517 1518 1520 1521 1522 1523 1524 1525 1525 1526 1526 1527 1527 1527 1527 1527 1527 1526 1526 1527 1527 1527 1528 1528 1528 1528 1529 1529 1529 1529 1529 1529 1529 1529
1504 1509 1507 1506 1507 1508 1509 1511 1512 1512 1515 1514 1514 1515 1516 1517 1519 1520 1521 1522 1523 1525 1525 1526 1527 1527 1528 1528 1528 1528 1528 1528 1528 1528 1528 1529 1529 1529 1530 1530 1530 1530 1531 1531 1531 1531 1531 1531 1531
1505 1505 1506 1506 1507 1508 1510 1511 1513 1513 1514 1514 1513 1514 1516 1517 1519 1521 1522 1523 1524 1525 1526 1527 1527 1528 1528 1529 1529 1529 1529 1529 1530 1530 1530 1530 1531 1531 1531 1531 1532 1532 1532 1532 1532 1533 1533 1533 1533
1505 1505 1506 1507 1507 1508 1510 1512 1513 1514 1514 1514 1514 1515 1517 1518 1520 1521 1522 1524 1525 1525 1526 1527 1528 1528 1529 1529 1530 1530 1530 1530 1531 1531 1531 1532 1532 1532 1533 1533 1533 1534 1534 1534 1534 1534 1534 1534 1534
1505 1506 1507 1508 1508 1509 1511 1513 1514 1515 1515 1514 1515 1516 1517 1519 1520 1521 1523 1523 1524 1525 1526 1527 1528 1529 1529 1530 1530 1531 1531 1531 1532 1532 1533 1533 1533 1534 1534 1534 1534 1535 1535 1536 1536 1536 1536 1536 1536
1505 1507 1509 1509 1509 1510 1511 1516 1515 1515 1515 1515 1516 1516 1518 1519 1520 1521 1522 1523 1525 1526 1527 1527 1528 1529 1530 1530 1531 1531 1532 1532 1532 1533 1533 1534 1534 1535 1535 1535 1535 1536 1536 1537 1537 1537 1537 1537 1537
1507 1512 1517 1512 1510 1511 1515 1522 1516 1516 1515 1516 1516 1517 1518 1519 1520 1521 1523 1524 1525 1526 1527 1527 1528 1529 1529 1530 1531 1531 1532 1532 1533 1533 1534 1534 1534 1535 1535 1536 1536 1537 1537 1537 1538 1538 1538 1538 1538
1516 1521 1520 1516 1511 1511 1515 1520 1516 1516 1516 1516 1517 1517 1518 1519 1520 1521 1523 1524 1525 1526 1526 1527 1527 1528 1529 1530 1530 1531 1532 1532 1533 1533 1534 1534 1535 1535 1535 1536 1536 1537 1538 1538 1538 1539 1539 1539 1539
1522 1521 1521 1519 1514 1514 1517 1519 1517 1516 1516 1516 1516 1517 1518 1518 1519 1521 1522 1523 1524 1525 1526 1527 1527 1528 1528 1529 1529 1530 1531 1531 1532 1532 1533 1534 1534 1535 1535 1536 1537 1537 1538 1538 1539 1539 1539 1539 1540
1515 1519 1521 1518 1514 1516 1519 1519 1517 1516 1516 1516 1516 1516 1517 1517 1519 1520 1521 1523 1523 1524 1525 1526 1527 1527 1528 1528 1528 1529 1530 1530 1531 1532 1532 1533 1534 1535 1535 1536 1536 1537 1538 1538 1538 1539 1539 1539 1540
1515 1520 1521 1518 1514 1516 1520 1520 1516 1516 1515 1515 1515 1515 1515 1517 1518 1519 1520 1521 1522 1523 1524 1525 1526 1526 1527 1527 1528 1528 1529 1529 1530 1531 1532 1532 1533 1534 1535 1535 1536 1537 1537 1538 1538 1538 1539 1539 1539
1515 1519 1519 1519 1517 1517 1520 1523 1518 1515 1515 1515 1514 1515 1515 1516 1517 1518 1519 1520 1521 1522 1523 1523 1524 1525 1526 1526 1527 1527 1528 1528 1529 1530 1531 1531 1532 1533 1534 1535 1535 1536 1536 1537 1537 1538 1538 1538 1539
1518 1511 1513 1516 1523 1528 1524 1535 1522 1517 1515 1514 1514 1514 1514 1515 1516 1517 1518 1519 1520 1520 1521 1522 1523 1524 1524 1525 1526 1526 1527 1527 1528 1529 1530 1531 1532 1533 1533 1534 1535 1535 1536 1536 1537 1537 1538 1538 1538
1511 1509 1512 1517 1522 1529 1528 1533 1527 1519 1518 1514 1513 1513 1513 1514 1515 1515 1516 1517 1518 1519 1520 1521 1522 1523 1523 1524 1524 1524 1525 1526 1527 1528 1529 1530 1531 1532 1532 1533 1534 1534 1535 1535 1536 1536 1536 1537 1537
1508 1513 1518 1524 1528 1536 1530 1533 1531 1522 1517 1513 1512 1512 1512 1513 1514 1514 1515 1516 1517 1518 1519 1520 1521 1521 1522 1522 1523 1523 1524 1525 1525 1526 1527 1528 1529 1530 1531 1532 1532 1533 1533 1534 1534 1535 1535 1535 1536
1511 1523 1536 1537 1543 1540 1529 1531 1528 1515 1512 1511 1510 1510 1511 1512 1513 1513 1514 1515 1516 1517 1518 1519 1519 1520 1520 1521 1521 1522 1522 1523 1524 1524 1526 1527 1527 1528 1529 1530 1530 1531 1532 1532 1533 1533 1533 1534 1534
1513 1520 1537 1543 1545 1540 1530 1531 1522 1512 1510 1509 1509 1509 1510 1511 1512 1513 1514 1515 1515 1516 1517 1518 1518 1519 1520 1520 1520 1521 1521 1522 1522 1523 1524 1525 1525 1526 1527 1528 1528 1529 1530 1530 1531 1531 1532 1532 1532
1514 1520 1521 1533 1536 1540 1535 1527 1517 1510 1509 1509 1509 1509 1509 1510 1512 1513 1513 1514 1515 1516 1516 1517 1517 1518 1519 1519 1519 1519 1520 1520 1521 1521 1522 1523 1524 1524 1525 1525 1526 1527 1527 1528 1528 1529 1530 1530 1531
1510 1517 1527 1533 1540 1544 1536 1530 1526 1514 1511 1509 1509 1509 1509 1510 1511 1512 1513 1514 1515 1515 1516 1516 1517 1517 1518 1518 1518 1518 1519 1519 1519 1520 1520 1521 1521 1522 1522 1523 1523 1524 1525 1525 1526 1527 1527 1528 1528
1515 1519 1525 1532 1534 1542 1542 1534 1513 1510 1508 1508 1508 1508 1508 1509 1510 1511 1512 1513 1514 1515 1515 1515 1516 1516 1517 1517 1518 1518 1518 1518 1518 1518 1518 1519 1519 1519 1520 1521 1521 1521 1522 1523 1523 1524 1525 1525 1526
1510 1514 1522 1530 1534 1537 1540 1532 1507 1507 1506 1506 1507 1507 1508 1508 1509 1510 1511 1512 1513 1514 1514 1514 1515 1515 1516 1516 1516 1516 1516 1516 1516 1516 1516 1516 1517 1517 1517 1518 1518 1519 1520 1520 1520 1521 1521 1522 1523